Regional Weather Roundup
Issued by NWS Kansas City/Pleasant Hill, MO

Home | Current Version | Previous Version | Graphics & Text | Print | Product List | Glossary Off
Versions: 1 2 3 4 5 6 7 8 9 10 11 12 13 14 15 16 17 18 19 20 21 22 23 24 25 26 27 28 29 30 31 32 33 34 35 36 37 38 39 40 41 42 43 44 45 46 47 48 49 50

000
ASUS43 KEAX 221910
RWREAX

WEATHER ROUNDUP FOR EASTERN KANSAS AND NORTHWEST MISSOURI
NATIONAL WEATHER SERVICE KANSAS CITY/PLEASANT HILL MO
200 PM CDT THU JUN 22 2017

KSZ040-057-103>105-MOZ028-029-037-043-222000-
...KANSAS CITY METROPOLITAN AREA...

CITY           SKY/WX    TMP DP  RH WIND       PRES   REMARKS
K.C. INTL      MOSUNNY   85  72  65 S13       29.71F HX  91
K.C. DOWNTOWN  MOSUNNY   87  72  60 S16G23    29.70F HX  93
LEES SUMMIT    CLOUDY    83  71  67 S16G23    29.73F
OLATHE - IXD   MOSUNNY   84  70  62 S17       29.72F
OLATHE - OJC   PTSUNNY   82  72  71 S13       29.72F
LAWRENCE       MOSUNNY   88  72  58 S13       29.69F HX  94

$$

MOZ001>008-011>017-020>025-030>033-038>040-044>046-053-054-222000-
...NORTHERN AND CENTRAL MISSOURI...

CITY           SKY/WX    TMP DP  RH WIND       PRES   REMARKS
ST. JOSEPH     SUNNY     88  71  57 S14       29.68F HX  94
WARRENSBURG    CLOUDY    81  70  69 S8        29.73F
WHITEMAN AFB   PTSUNNY   82  77  83 SW13      29.73F HX  90
CLINTON        CLOUDY    84  72  65 S9        29.75F
SEDALIA        CLOUDY    83  75  77 S10       29.76F HX  90
WARSAW         NOT AVBL
CHILLICOTHE      N/A     85  72  65 S12G17    29.73S HX  91
KIRKSVILLE     PTSUNNY   86  72  62 S15       29.76F HX  92

$$

MOZ041-047>049-056>058-063>065-088>090-097-222000-
...EASTERN AND SOUTHERN MISSOURI...

CITY           SKY/WX    TMP DP  RH WIND       PRES   REMARKS
ST. LOUIS INTL CLOUDY    84  71  65 S12       29.81F
SPIRIT OF STL  PTSUNNY   82  73  74 S7        29.78F
COLUMBIA       CLOUDY    82  73  74 S10       29.77F
JEFFERSON CITY CLOUDY    84  71  65 SE9       29.75F
ROLLA          PTSUNNY   84  73  69 S13G22    29.78F HX  90
OSAGE BEACH    CLOUDY    83  73  72 S9        29.77F
SPRINGFIELD    CLOUDY    82  73  74 S13       29.77F
BRANSON        PTSUNNY   79  72  78 S7        29.80F
JOPLIN         PTSUNNY   85  74  69 S10       29.75F HX  92
WEST PLAINS    CLOUDY    81  71  71 S9        29.81F

$$

IAZ060-094-KSZ022-034>040-054-083-096-NEZ052-066-093-222000-
...KANSAS...SOUTHEAST NEBRASKA AND IOWA...

CITY           SKY/WX    TMP DP  RH WIND       PRES   REMARKS
TOPEKA         SUNNY     88  70  55 S12G20    29.69F HX  93
MANHATTAN      SUNNY     93  68  43 SW16G23   29.65F HX  97
EMPORIA        SUNNY     85  70  60 S16       29.70F
CHANUTE        CLOUDY    85  71  63 S10       29.73F HX  90
WICHITA        SUNNY     89  67  47 S21       29.68F HX  92
OMAHA          CLOUDY    88  68  51 S13       29.64F HX  91
LINCOLN        CLOUDY    85  68  56 S12       29.64S
FALLS CITY     SUNNY     87  69  54 S17G23    29.66F HX  91
LAMONI         CLOUDY    81  69  67 S8        29.73S
DES MOINES     CLOUDY    83  70  64 S10       29.69F

$$




USA.gov is the U.S. government's official web portal to all federal, state and local government web resources and services.